This is the latest recevied weather packets stored in our database for station/object N0ZRD-10. If no packets are shown the sender has not sent any weather packets the latest 10 day(s).
| Time | Temp. | Humidity | Pressure | Rain* | Wind** | Luminosity | Snow |
|---|---|---|---|---|---|---|---|
| 1777871651 | 12.78° C | 32% | - | 0 mm | - | - | - |
| 1777871050 | 12.22° C | 32% | - | 0 mm | - | - | - |
| 1777870448 | 12.78° C | 32% | - | 0 mm | - | - | - |
| 1777869242 | 12.78° C | 31% | - | 0 mm | - | - | - |
| 1777868642 | 12.78° C | 31% | - | 0 mm | - | - | - |
| 1777866836 | 12.78° C | 29% | - | 0 mm | - | - | - |
| 1777865635 | 13.33° C | 30% | - | 0 mm | - | - | - |
| 1777865034 | 13.33° C | 28% | - | 0 mm | - | - | - |
| 1777864432 | 13.33° C | 28% | - | 0 mm | - | - | - |
| 1777863830 | 13.89° C | 28% | - | 0 mm | - | - | - |
| 1777863230 | 13.89° C | 27% | - | 0 mm | - | - | - |
| 1777862628 | 14.44° C | 26% | - | 0 mm | - | - | - |
| 1777862028 | 14.44° C | 25% | - | 0 mm | - | - | - |
| 1777861427 | 15° C | 26% | - | 0 mm | - | - | - |
| 1777860826 | 15° C | 26% | - | 0 mm | - | - | - |
| 1777860225 | 15° C | 25% | - | 0 mm | - | - | - |
| 1777859624 | 15° C | 27% | - | 0 mm | - | - | - |
| 1777859023 | 15° C | 27% | - | 0 mm | - | - | - |
| 1777857820 | 15.56° C | 24% | - | 0 mm | - | - | - |
| 1777857219 | 16.11° C | 22% | - | 0 mm | - | - | - |
| 1777854813 | 17.78° C | 19% | - | 0 mm | - | - | - |
| 1777854212 | 18.33° C | 21% | - | 0 mm | - | - | - |
| 1777853611 | 17.78° C | 17% | - | 0 mm | - | - | - |
| 1777853010 | 17.78° C | 20% | - | 0 mm | - | - | - |
| 1777852409 | 17.78° C | 19% | - | 0 mm | - | - | - |
* Rain latest hour (hover to see other rain measurements)
** Current wind speed in m/s (hover to see current wind gust speed)